NOZ1487 LFPG-ENZV

Flight info

Callsign NOZ1487
Flight time N/A
Altitude 35000
Route NURMO DCT CMB DCT VEKIN DCT ADUTO DCT VICOT/N0438F340 DCT LONAM/N0439F350 DCT LARGA DCT PENUN DCT UNBUD
Aircraft B738/M-SDE2E3FGHIRWXY/LB1

Departure

Time N/A
Airport Charles de Gaulle International Airport (LFPG)

Arrival

Time 2026-04-15 16:17
Airport Stavanger Airport, Sola (ENZV)
Time Latitude Longitude Altitude Speed Heading
2026-04-15 16:02 58.00681 5.08688 20107 ft 379 kts
2026-04-15 16:03 58.03302 5.09255 20016 ft 378 kts
2026-04-15 16:03 58.05894 5.09817 19992 ft 371 kts
2026-04-15 16:03 58.08426 5.10367 19655 ft 362 kts
2026-04-15 16:03 58.10928 5.10911 18925 ft 362 kts
2026-04-15 16:04 58.13433 5.11455 18123 ft 362 kts
2026-04-15 16:04 58.15933 5.12000 17378 ft 361 kts
2026-04-15 16:04 58.18411 5.12541 16708 ft 356 kts
2026-04-15 16:04 58.20859 5.13076 16054 ft 352 kts
2026-04-15 16:05 58.23283 5.13607 15383 ft 349 kts
2026-04-15 16:05 58.25682 5.14132 14714 ft 345 kts
2026-04-15 16:05 58.28060 5.14654 14054 ft 342 kts
2026-04-15 16:05 58.30411 5.15171 13401 ft 339 kts
2026-04-15 16:06 58.32741 5.15684 12746 ft 336 kts
2026-04-15 16:06 58.35051 5.16192 12104 ft 332 kts
2026-04-15 16:06 58.37336 5.16697 11461 ft 329 kts
2026-04-15 16:06 58.39600 5.17197 10825 ft 326 kts
2026-04-15 16:07 58.41846 5.17693 10190 ft 323 kts
2026-04-15 16:07 58.44068 5.18185 9563 ft 320 kts
2026-04-15 16:07 58.48409 5.19149 8532 ft 308 kts
2026-04-15 16:08 58.50503 5.19615 8178 ft 298 kts
2026-04-15 16:08 58.52523 5.20064 7866 ft 287 kts
2026-04-15 16:08 58.54474 5.20499 7568 ft 278 kts
2026-04-15 16:08 58.56368 5.20922 7288 ft 272 kts
2026-04-15 16:09 58.58240 5.21340 7019 ft 270 kts
2026-04-15 16:09 58.60104 5.21756 6735 ft 270 kts
2026-04-15 16:09 58.61965 5.22172 6465 ft 269 kts
2026-04-15 16:09 58.63822 5.22588 6187 ft 269 kts
2026-04-15 16:10 58.65678 5.23004 5909 ft 268 kts
2026-04-15 16:10 58.67533 5.23420 5575 ft 270 kts
2026-04-15 16:10 58.69415 5.23843 5198 ft 273 kts
2026-04-15 16:10 58.71307 5.24269 4904 ft 274 kts
2026-04-15 16:11 58.73182 5.24691 4598 ft 269 kts
2026-04-15 16:11 58.75021 5.25106 4307 ft 263 kts
2026-04-15 16:11 58.76815 5.25512 4026 ft 256 kts
2026-04-15 16:11 58.78554 5.25904 3758 ft 248 kts
2026-04-15 16:12 58.80241 5.26286 3505 ft 240 kts
2026-04-15 16:12 58.81872 5.26655 3267 ft 232 kts
2026-04-15 16:12 58.83463 5.27016 3191 ft 231 kts
2026-04-15 16:12 58.85065 5.27379 3090 ft 232 kts
2026-04-15 16:13 58.86624 5.28101 2984 ft 231 kts 30°
2026-04-15 16:13 58.87904 5.29894 2987 ft 228 kts 36°
2026-04-15 16:13 58.89183 5.31718 2784 ft 229 kts 36°
2026-04-15 16:13 58.90451 5.33519 2552 ft 223 kts 38°
2026-04-15 16:14 58.91367 5.35836 2312 ft 216 kts 73°
2026-04-15 16:14 58.91455 5.38648 2124 ft 207 kts 99°
2026-04-15 16:14 58.91123 5.41273 1877 ft 196 kts 106°
2026-04-15 16:14 58.90743 5.43743 1624 ft 187 kts 107°
2026-04-15 16:15 58.90375 5.46123 1363 ft 183 kts 107°
2026-04-15 16:15 58.90013 5.48441 1110 ft 177 kts 107°
2026-04-15 16:15 58.89676 5.50628 894 ft 167 kts 107°
2026-04-15 16:15 58.89359 5.52705 726 ft 156 kts 106°
2026-04-15 16:16 58.89048 5.54751 513 ft 159 kts 107°
2026-04-15 16:16 58.88737 5.56738 356 ft 151 kts 107°
2026-04-15 16:16 58.88449 5.58679 232 ft 150 kts 106°
2026-04-15 16:16 58.88157 5.60628 65 ft 151 kts 107°
2026-04-15 16:17 58.87879 5.62462 25 ft 121 kts 107°
2026-04-15 16:17 58.87703 5.63611 32 ft 57 kts 106°
2026-04-15 16:17 58.87638 5.64058 31 ft 26 kts 107°
2026-04-15 16:17 58.87597 5.64321 33 ft 16 kts 107°
2026-04-15 16:18 58.87559 5.64487 34 ft 8 kts 112°
2026-04-15 16:18 58.87580 5.64497 33 ft 5 kts 299°
2026-04-15 16:18 58.87591 5.64418 33 ft 8 kts 283°
2026-04-15 16:18 58.87612 5.64242 33 ft 19 kts 284°
2026-04-15 16:19 58.87654 5.63950 31 ft 25 kts 286°
2026-04-15 16:19 58.87701 5.63649 31 ft 22 kts 287°
2026-04-15 16:19 58.87739 5.63396 30 ft 17 kts 286°
2026-04-15 16:19 58.87812 5.63290 30 ft 12 kts 355°
2026-04-15 16:20 58.87891 5.63327 30 ft 12 kts 22°
2026-04-15 16:20 58.87953 5.63274 28 ft 13 kts 291°
2026-04-15 16:20 58.87981 5.63087 26 ft 16 kts 286°
2026-04-15 16:20 58.87989 5.62940 26 ft 10 kts 262°
2026-04-15 16:21 58.87995 5.62831 25 ft 6 kts 319°
2026-04-15 16:21 58.88040 5.62821 24 ft 5 kts 358°
2026-04-15 16:21 58.88054 5.62820 24 ft 0 kts 358°